This is the latest recevied weather packets stored in our database for station/object WA7CUG. If no packets are shown the sender has not sent any weather packets the latest 10 day(s).
| Time | Temp. | Humidity | Pressure | Rain* | Wind** | Luminosity | Snow |
|---|---|---|---|---|---|---|---|
| 1778130291 | 21.11° C | 33% | 1011.5 hPa | 0 mm | - | 0 W/m² | - |
| 1778129988 | 21.11° C | 32% | 1011.7 hPa | 0 mm | - | 0 W/m² | - |
| 1778129684 | 21.67° C | 32% | 1011.5 hPa | 0 mm | - | 0 W/m² | - |
| 1778129382 | 21.67° C | 31% | 1011.8 hPa | 0 mm | - | 0 W/m² | - |
| 1778129079 | 21.67° C | 31% | 1011.5 hPa | 0 mm | - | 0 W/m² | - |
| 1778128775 | 21.11° C | 31% | 1011.7 hPa | 0 mm | - | 0 W/m² | - |
| 1778128471 | 20.56° C | 32% | 1011.5 hPa | 0 mm | - | 0 W/m² | - |
| 1778128167 | 21.11° C | 35% | 1011.7 hPa | 0 mm | - | 0 W/m² | - |
| 1778127864 | 21.67° C | 31% | 1011.4 hPa | 0 mm | - | 0 W/m² | - |
| 1778127560 | 21.11° C | 32% | 1011.5 hPa | 0 mm | - | 0 W/m² | - |
| 1778127257 | 21.67° C | 32% | 1011.5 hPa | 0 mm | - | 0 W/m² | - |
| 1778126955 | 22.22° C | 31% | 1011.2 hPa | 0 mm | - | 0 W/m² | - |
| 1778126650 | 22.22° C | 31% | 1011.4 hPa | 0 mm | - | 0 W/m² | - |
| 1778126346 | 22.78° C | 31% | 1011.2 hPa | 0 mm | - | 0 W/m² | - |
| 1778126042 | 22.78° C | 30% | 1011.1 hPa | 0 mm | - | 0 W/m² | - |
| 1778125739 | 22.78° C | 31% | 1011.2 hPa | 0 mm | - | 0 W/m² | - |
| 1778125436 | 22.78° C | 30% | 1011.1 hPa | 0 mm | - | 0 W/m² | - |
| 1778125134 | 22.78° C | 31% | 1010.9 hPa | 0 mm | - | 0 W/m² | - |
| 1778124832 | 23.33° C | 32% | 1010.6 hPa | 0 mm | - | 0 W/m² | - |
| 1778124529 | 23.33° C | 32% | 1010.7 hPa | 0 mm | - | 1 W/m² | - |
| 1778124225 | 23.33° C | 32% | 1010.6 hPa | 0 mm | - | 1 W/m² | - |
| 1778123921 | 23.33° C | 32% | 1010.5 hPa | 0 mm | - | 2 W/m² | - |
| 1778123619 | 23.33° C | 32% | 1010.6 hPa | 0 mm | - | 4 W/m² | - |
| 1778123315 | 23.89° C | 31% | 1010.6 hPa | 0 mm | - | 6 W/m² | - |
| 1778123013 | 23.89° C | 31% | 1010.5 hPa | 0 mm | - | 8 W/m² | - |
* Rain latest hour (hover to see other rain measurements)
** Current wind speed in m/s (hover to see current wind gust speed)